STARLINK-2458 (48118 NORAD) Tracking and Keplerian Element Data

This shows tracking and keplerian element data for the satellite.

Feedback or suggestion? Click here.




ElementValue
Catalog48118
NameSTARLINK-2458
Epoch Orbit198
Epoch Day173.91668981
Epoch Year2021
RAAN321.7223
Inclination53.0461
Eccentricity0.0002128
Argument of Perigee16.179
Mean Anonmoly346.9679
Mean Motion15.64757679
Decay Rate-0.01106268
L11 48118U 21027AC 21173.91668981 -.01106268 00000-0 -12291-1 0 9998
L22 48118 53.0461 321.7223 0002128 16.1790 346.9679 15.64757679 1989

Live tracking and technical data element details for STARLINK-2458 (NORAD 48118). STARLINK-2458 can be tracked NOW for your location showing map with azimuth and elevation plus other details from your city location.

Track the satellite on the map from your city or location and see movement details for azimuth, elevation, latitude, longitude, range, height, and movement on the map or in text.







IsCatalogInMostPopularTable: catalog: 48118, numindb: 36
Update: records affected: 1



GetName: 48118 STARLINK-2458

Hit Count: updated at: Thu, 24 Jun 2021 02:36:39 GMT